Location: Alafon
(8.4500°N, 4.2333°E)
Time: 01:30:59
(UTC+00:00)

BLOCK DM-SL R/B - Pass Details

Date: 05 July 2020
Orbit: 671 x 35744 km, 6.2° (Epoch: 06 August)

Event Time Altitude Azimuth Distance (km) Brightness Sun altitude
Rises 19:17:11 0° 273° (W) 13,345 10.6 -16.9°
Reaches altitude 10° 19:33:26 10° 270° (W) 7,716 9.0 -20.4°
Maximum altitude 19:49:08 53° 195° (SSW) 1,434 4.2 -23.8°
Enters shadow 19:50:28 44° 152° (SSE) 1,386 3.9 -24.1°
